This demonstration page uses our WeatherBlox Daily Observations layout. Learn more.

Left ArrowRight Arrow

44.8408, -93.29828

Hourly Observations for September 3, 2016

Temp ( °F °C ) Dew Point ( °F °C ) Humidity (%) Winds ( mph kmh ) Pressure ( in mb ) Visibility ( mi km ) Precip ( " mm )
12:53 am 00:53 Clear 60 15.6 53 11.7 78 78 SSE 8 13 30.15 1021 10 16 0.00 0.00
1:53 am 01:53 Clear 60 15.6 53 11.7 78 78 SSE 10 17 30.14 1021 10 16 0.00 0.00
2:53 am 02:53 Clear 59 15 52 11.1 78 78 SSE 7 11 30.14 1021 10 16 0.00 0.00
3:53 am 03:53 Mostly Clear 59 15 53 11.7 81 81 SSE 7 11 30.14 1021 10 16 0.00 0.00
4:53 am 04:53 Partly Cloudy 61 16.1 53 11.7 75 75 S 10 17 30.13 1020 10 16 0.00 0.00
5:53 am 05:53 Mostly Cloudy 59 15 53 11.7 81 81 SSE 10 17 30.13 1020 10 16 0.00 0.00
6:53 am 06:53 Mostly Cloudy 60 15.6 53 11.7 78 78 S 7 11 30.13 1020 10 16 0.00 0.00
7:53 am 07:53 Mostly Cloudy 60 15.6 53 11.7 78 78 SSE 9 15 30.14 1021 10 16 0.00 0.00
8:53 am 08:53 Cloudy 61 16.1 53 11.7 75 75 SSE 10 17 30.14 1021 10 16 0.00 0.00
9:53 am 09:53 Cloudy 63 17.2 53 11.7 70 70 S 12 19 30.14 1021 10 16 0.00 0.00
10:53 am 10:53 Cloudy 68 20 54 12.2 61 61 S 14 22 30.14 1021 10 16 0.00 0.00
11:53 am 11:53 Mostly Cloudy 70 21.1 55 12.8 59 59 S 14 22 30.13 1020 10 16 0.00 0.00
12:53 pm 12:53 Mostly Cloudy 72 22.2 54 12.2 53 53 S 15 24 30.11 1020 10 16 0.00 0.00
1:53 pm 13:53 Mostly Cloudy 74 23.3 56 13.3 54 54 S 13 20 30.09 1019 10 16 0.00 0.00
2:53 pm 14:53 Cloudy 75 23.9 56 13.3 52 52 SSE 13 20 30.07 1018 10 16 0.00 0.00
3:53 pm 15:53 Mostly Cloudy 76 24.4 55 12.8 48 48 S 16 26 30.05 1018 10 16 0.00 0.00
4:53 pm 16:53 Mostly Cloudy 75 23.9 55 12.8 50 50 S 16 26 30.04 1017 10 16 0.00 0.00
5:53 pm 17:53 Mostly Cloudy 75 23.9 57 13.9 54 54 SSE 14 22 30.02 1017 10 16 0.00 0.00
6:53 pm 18:53 Mostly Cloudy 73 22.8 57 13.9 57 57 SSE 9 15 30.01 1016 10 16 0.00 0.00
7:53 pm 19:53 Mostly Cloudy 71 21.7 55 12.8 57 57 SSE 8 13 30.01 1016 10 16 0.00 0.00
8:53 pm 20:53 Partly Cloudy 68 20 55 12.8 63 63 SSE 8 13 30.03 1017 10 16 0.00 0.00
9:53 pm 21:53 Partly Cloudy 65 18.3 55 12.8 70 70 SE 8 13 30.04 1017 10 16 0.00 0.00
10:53 pm 22:53 Partly Cloudy 64 17.8 56 13.3 75 75 SSE 9 15 30.05 1018 10 16 0.00 0.00
11:53 pm 23:53 Partly Cloudy 63 17.2 56 13.3 78 78 SSE 10 17 30.05 1018 10 16 0.00 0.00

Powered by AerisWeather